Waarnemingen

Advertentie
Mijn weer
Capo Carbonara, Italië (16564): temperatuur & dauwpunt: 12.02.2019 01:00:00 - 18.02.2019 01:00:00 (CET)Capo Carbonara, Italië (16564): windsnelheid: 12.02.2019 01:00:00 - 18.02.2019 01:00:00 (CET)Capo Carbonara, Italië (16564): windrichting: 12.02.2019 01:00:00 - 18.02.2019 01:00:00 (CET)Capo Carbonara, Italië (16564): luchtdruk: 12.02.2019 01:00:00 - 18.02.2019 01:00:00 (CET)Capo Carbonara, Italië (16564): zicht: 12.02.2019 01:00:00 - 18.02.2019 01:00:00 (CET)
Datum & Tijd tt [°C] td [°C] ff [km/u] ff [kn] dd ppp [hPa] vv [km]
18.02.2019 01:00:00 10,6 9,0 8 4 O 1027,5 20
18.02.2019 00:00:00 11,0 9,0 5 3 O - 10
17.02.2019 23:00:00 11,0 9,0 8 4 ZO - 10
17.02.2019 22:00:00 11,2 8,8 13 7 Z 1027,6 20
17.02.2019 21:00:00 11,0 9,0 15 8 ZO - 10
17.02.2019 20:00:00 12,0 9,0 15 8 ZO - 10
17.02.2019 19:00:00 12,0 9,0 13 7 ZO 1027,5 20
17.02.2019 18:00:00 13,0 -9,0 11 6 ZO - 10
17.02.2019 17:00:00 15,0 9,0 11 6 ZO - 10
17.02.2019 16:00:00 16,0 9,9 15 8 Z 1028,2 20
17.02.2019 15:00:00 16,0 9,0 15 8 Z - 10
17.02.2019 14:00:00 16,0 10,0 13 7 Z - 10
17.02.2019 13:00:00 15,8 9,9 15 8 Z 1029,8 20
17.02.2019 12:00:00 16,0 10,0 13 7 Z - 10
17.02.2019 11:00:00 14,0 11,0 15 8 O - 10
17.02.2019 10:00:00 12,8 10,2 16 9 O 1030,0 20
17.02.2019 09:00:00 12,0 10,0 8 4 O - 10
17.02.2019 08:00:00 11,0 9,0 4 2 NW - 10
17.02.2019 07:00:00 11,2 8,7 5 3 WNW 1029,8 20
17.02.2019 06:00:00 11,0 9,0 11 6 W - 10
17.02.2019 05:00:00 11,0 8,0 9 5 W - 10
17.02.2019 04:00:00 11,2 8,3 9 5 W 1029,5 20
17.02.2019 03:00:00 11,0 9,0 11 6 W - 10
17.02.2019 02:00:00 11,0 10,0 16 9 W - 10
17.02.2019 01:00:00 11,8 9,9 13 7 W 1030,1 20
17.02.2019 00:00:00 12,0 10,0 15 8 WZW - 10
16.02.2019 23:00:00 12,0 10,0 13 7 WZW - 10
16.02.2019 22:00:00 12,2 10,4 13 7 WZW 1030,2 20
16.02.2019 21:00:00 12,0 10,0 15 8 ZW - 10
16.02.2019 20:00:00 13,0 10,0 11 6 ZZW - 10
16.02.2019 19:00:00 12,4 9,0 13 7 ZZW 1029,9 20
16.02.2019 18:00:00 14,0 9,0 15 8 ZZW - 10
16.02.2019 17:00:00 17,0 10,0 15 8 Z - 10
16.02.2019 16:00:00 17,2 11,1 13 7 Z 1029,5 20
16.02.2019 15:00:00 17,0 11,0 15 8 ZZW - 10
16.02.2019 14:00:00 17,0 12,0 15 8 W - 10
16.02.2019 13:00:00 17,4 11,2 13 7 Z 1030,0 20
16.02.2019 12:00:00 17,0 11,0 11 6 ZZW - 10
16.02.2019 11:00:00 16,0 11,0 9 5 OZO - 10
16.02.2019 10:00:00 13,8 10,2 9 5 OZO 1029,6 20
16.02.2019 09:00:00 12,0 10,0 13 7 OZO - 10
16.02.2019 08:00:00 12,0 10,0 8 4 ONO - 10
16.02.2019 07:00:00 12,2 10,4 11 6 OZO 1028,2 20
16.02.2019 06:00:00 12,0 10,0 13 7 ONO - 10
16.02.2019 05:00:00 12,0 9,0 29 16 NNO - 10
16.02.2019 04:00:00 12,4 9,4 18 10 NNO 1027,2 20
16.02.2019 03:00:00 - - - - - - -
16.02.2019 02:00:00 13,0 10,0 18 10 NO - 10
16.02.2019 01:00:00 13,2 7,6 26 14 NO 1027,2 20
16.02.2019 00:00:00 13,0 9,0 15 8 O - 10
15.02.2019 23:00:00 14,0 4,0 9 5 N - 10
15.02.2019 22:00:00 13,8 4,7 4 2 N 1027,1 20
15.02.2019 21:00:00 15,0 4,0 9 5 W - 10
15.02.2019 20:00:00 14,0 8,0 11 6 W - 10
15.02.2019 19:00:00 13,0 11,1 15 8 WZW 1026,7 20
15.02.2019 18:00:00 15,0 13,0 11 6 WZW - 10
15.02.2019 17:00:00 17,0 14,0 16 9 ZW - 10
15.02.2019 16:00:00 17,0 12,1 5 3 WNW 1027,0 20
15.02.2019 15:00:00 17,0 9,0 8 4 ZZW - 10
15.02.2019 14:00:00 17,0 11,0 13 7 WZW - 10
15.02.2019 13:00:00 15,2 10,6 13 7 WZW 1028,6 20
15.02.2019 12:00:00 16,0 9,0 9 5 ZW - 10
15.02.2019 11:00:00 13,0 9,0 8 4 W - 10
15.02.2019 10:00:00 11,6 7,9 9 5 WZW 1029,8 20
15.02.2019 09:00:00 11,0 6,0 9 5 WZW - 10
15.02.2019 08:00:00 12,0 6,0 4 2 ZW - 10
15.02.2019 07:00:00 10,8 7,5 15 8 ONO 1030,1 20
15.02.2019 06:00:00 12,0 9,0 5 3 O - 10
15.02.2019 05:00:00 12,0 9,0 4 2 O - 10
15.02.2019 04:00:00 12,4 6,0 4 2 NW 1030,2 10
15.02.2019 03:00:00 12,0 7,0 5 3 NW - 10
15.02.2019 02:00:00 11,0 8,0 13 7 WNW - 10
15.02.2019 01:00:00 11,2 8,0 13 7 WNW 1031,0 10
15.02.2019 00:00:00 11,0 9,0 22 12 W - 10
14.02.2019 23:00:00 11,0 9,0 11 6 WNW - 10
14.02.2019 22:00:00 11,6 10,1 16 9 WZW 1031,9 20
14.02.2019 21:00:00 12,0 10,0 8 4 WZW - 10
14.02.2019 20:00:00 12,0 9,0 2 1 W - 10
14.02.2019 19:00:00 11,6 7,9 5 3 NNO 1032,3 20
14.02.2019 18:00:00 13,0 11,0 9 5 ONO - 10
14.02.2019 17:00:00 15,0 12,0 9 5 NO - 10
14.02.2019 16:00:00 14,8 10,4 4 2 W 1032,3 20
14.02.2019 15:00:00 16,0 12,0 21 11 WZW - 10
14.02.2019 14:00:00 15,0 10,0 21 11 W - 10
14.02.2019 13:00:00 14,2 10,4 29 16 ONO 1033,0 20
14.02.2019 12:00:00 14,0 10,0 29 16 ONO - 10
14.02.2019 11:00:00 13,0 10,0 34 18 NO - 10
14.02.2019 10:00:00 12,2 9,0 37 20 NO 1033,1 20
14.02.2019 09:00:00 11,0 8,0 39 21 NO - 10
14.02.2019 08:00:00 11,0 8,0 35 19 NO - 10
14.02.2019 07:00:00 10,6 6,5 34 18 NNO 1032,4 20
14.02.2019 06:00:00 11,0 5,0 34 18 NNO - 10
14.02.2019 05:00:00 11,0 4,0 18 10 NNO - 10
14.02.2019 04:00:00 11,2 3,7 21 11 NNO 1032,1 20
14.02.2019 03:00:00 12,0 3,0 9 5 N - 10
14.02.2019 02:00:00 11,0 8,0 5 3 W - 10
14.02.2019 01:00:00 11,2 5,5 13 7 NNO 1032,5 20
14.02.2019 00:00:00 11,0 8,0 26 14 NNO - 10
13.02.2019 23:00:00 12,0 8,0 18 10 NNO - 10
13.02.2019 22:00:00 11,8 7,1 8 4 N 1032,6 20
13.02.2019 21:00:00 11,0 8,0 15 8 N - 10
13.02.2019 20:00:00 11,0 8,0 26 14 NNO - 10
13.02.2019 19:00:00 11,0 8,9 28 15 NNO 1032,0 20
13.02.2019 18:00:00 12,0 10,0 24 13 NO - 10
13.02.2019 17:00:00 14,0 12,0 24 13 NO - 10
13.02.2019 16:00:00 15,0 11,5 16 9 ONO 1031,2 20
13.02.2019 15:00:00 16,0 11,0 5 3 - - 10
13.02.2019 14:00:00 16,0 11,0 5 3 - - 10
13.02.2019 13:00:00 15,2 10,8 16 9 W 1031,7 20
13.02.2019 12:00:00 15,0 9,0 26 14 ONO - 10
13.02.2019 11:00:00 13,0 8,0 15 8 O - 10
13.02.2019 10:00:00 11,8 5,9 5 3 O 1031,6 20
13.02.2019 09:00:00 13,0 -1,0 5 3 NO - 10
13.02.2019 08:00:00 - - - - - - -
13.02.2019 07:00:00 11,0 -3,9 15 8 NNO 1030,0 20
13.02.2019 06:00:00 10,0 -4,0 9 5 NNO - 10
13.02.2019 05:00:00 10,0 3,0 8 4 NW - 10
13.02.2019 04:00:00 10,6 2,7 5 3 NW 1029,0 20
13.02.2019 03:00:00 11,0 3,0 16 9 W - 10
13.02.2019 02:00:00 11,0 3,0 15 8 W - 10
13.02.2019 01:00:00 11,0 5,4 15 8 WNW 1032,1 20
13.02.2019 00:00:00 11,0 5,0 13 7 NW - 10
12.02.2019 23:00:00 10,0 6,0 21 11 WNW - 10
12.02.2019 22:00:00 10,0 7,9 24 13 W 1027,7 20
12.02.2019 21:00:00 11,0 6,0 16 9 WNW - 10
12.02.2019 20:00:00 13,0 8,0 0 0 N - 10
12.02.2019 19:00:00 13,0 7,6 0 0 N 1026,3 20
12.02.2019 18:00:00 14,0 7,0 5 3 ONO - 10
12.02.2019 17:00:00 14,0 8,0 9 5 O - 10
12.02.2019 16:00:00 15,0 8,5 18 10 ONO 1025,6 20
12.02.2019 15:00:00 16,0 9,0 18 10 O - 10
12.02.2019 14:00:00 16,0 9,0 13 7 O - 10
12.02.2019 13:00:00 15,0 8,7 16 9 NNO 1025,6 20
12.02.2019 12:00:00 13,0 8,0 26 14 W - 10
12.02.2019 11:00:00 13,0 5,0 21 11 N - 10
12.02.2019 10:00:00 12,2 4,7 41 22 NNO 1024,4 20
12.02.2019 09:00:00 12,0 5,0 35 19 NNO - 10
12.02.2019 08:00:00 12,0 5,0 13 7 N - 10
12.02.2019 07:00:00 11,8 3,8 8 4 N 1022,0 10
12.02.2019 06:00:00 12,0 4,0 8 4 N - 10
12.02.2019 05:00:00 12,0 8,0 37 20 WNW - 10
12.02.2019 04:00:00 11,6 7,8 37 20 WNW 1020,1 10
12.02.2019 03:00:00 12,0 8,0 37 20 WNW - 10
12.02.2019 02:00:00 12,0 7,0 39 21 WNW - 10
12.02.2019 01:00:00 12,0 7,1 52 28 NW 1020,1 10

tt = temperatuur
td = dauwpunt
ff = windsnelheid
dd = windrichting
ppp = luchtdruk
vv = zicht

Weerstations in de omgeving